Location: Menands
(42.6920°N, 73.7246°W)
Time: 03:24:05
(UTC+00:00)

Cosmos 2297 Rocket - Pass Details

Date: 18 February 2026
Orbit: 838 x 843 km, 71.0° (Epoch: 8 March)

Event Time Altitude Azimuth Distance (km) Brightness Sun altitude
Rises 23:24:43 0° 237° (WSW) 3,389 6.6 -10.6°
Reaches altitude 10° 23:27:31 10° 250° (WSW) 2,458 6.0 -11.1°
Maximum altitude 23:32:15 27° 307° (NW) 1,570 4.2 -12.0°
Drops below altitude 10° 23:37:01 10° 4° (N) 2,470 4.6 -12.8°
Sets 23:39:52 0° 17° (NNE) 3,409 5.2 -13.4°
